Time,TemperatureF,DewpointF,PressureIn,WindDirection,WindDirectionDegrees,WindSpeedMPH,WindSpeedGustMPH,Humidity,HourlyPrecipIn,Conditions,Clouds,dailyrainin,SolarRadiationWatts/m^2,SoftwareType,DateUTC
2013-01-06 00:00:00,45.3,41.4,30.28,ESE,113,0.0,0.0,86,0.00,,,0.00,0.0,meteohub,2013-01-06 05:00:00,
2013-01-06 00:01:00,45.3,41.4,30.28,ESE,113,0.0,0.0,86,0.00,,,0.00,0.0,meteohub,2013-01-06 05:01:00,
2013-01-06 00:02:00,45.3,41.4,30.27,ESE,113,0.0,0.0,86,0.00,,,0.00,0.0,meteohub,2013-01-06 05:02:00,
2013-01-06 00:05:00,45.3,41.4,30.27,ESE,113,0.0,0.0,86,0.00,,,0.00,0.0,meteohub,2013-01-06 05:05:00,
2013-01-06 00:10:00,45.3,41.7,30.28,ESE,113,0.0,0.0,87,0.00,,,0.00,0.0,meteohub,2013-01-06 05:10:00,
2013-01-06 00:15:00,45.3,41.7,30.27,ESE,113,0.0,0.0,87,0.00,,,0.00,0.0,meteohub,2013-01-06 05:15:00,
2013-01-06 00:20:00,45.3,41.7,30.27,ESE,113,0.0,0.0,87,0.00,,,0.00,0.0,meteohub,2013-01-06 05:20:00,
2013-01-06 00:25:00,45.3,41.4,30.27,ESE,113,0.0,0.0,86,0.00,,,0.00,0.0,meteohub,2013-01-06 05:25:00,
2013-01-06 00:30:00,45.3,41.7,30.27,ESE,113,0.0,0.0,87,0.00,,,0.00,0.0,meteohub,2013-01-06 05:30:00,
2013-01-06 00:35:00,45.3,41.7,30.26,ESE,113,0.0,0.0,87,0.00,,,0.00,0.0,meteohub,2013-01-06 05:35:00,
2013-01-06 00:40:00,45.3,41.7,30.25,ESE,113,0.0,0.0,87,0.00,,,0.00,0.0,meteohub,2013-01-06 05:40:00,
2013-01-06 00:45:00,45.3,41.9,30.25,ESE,113,0.0,0.0,88,0.00,,,0.00,0.0,meteohub,2013-01-06 05:45:00,
2013-01-06 00:50:00,45.3,42.3,30.25,ESE,113,0.0,0.0,89,0.00,,,0.00,0.0,meteohub,2013-01-06 05:50:00,
2013-01-06 00:55:00,45.3,42.6,30.24,ESE,113,0.0,0.0,90,0.00,,,0.00,0.0,meteohub,2013-01-06 05:55:00,
2013-01-06 01:01:00,45.3,42.6,30.24,ESE,113,0.0,1.0,90,0.00,,,0.00,0.0,meteohub,2013-01-06 06:01:00,
2013-01-06 01:06:00,45.3,42.6,30.24,ESE,113,0.0,1.0,90,0.00,,,0.00,0.0,meteohub,2013-01-06 06:06:00,
2013-01-06 01:11:00,45.3,42.8,30.24,ESE,113,0.0,1.0,91,0.00,,,0.00,0.0,meteohub,2013-01-06 06:11:00,
2013-01-06 01:16:00,45.3,42.8,30.24,ESE,113,0.0,0.0,91,0.00,,,0.00,0.0,meteohub,2013-01-06 06:16:00,
2013-01-06 01:21:00,45.3,42.8,30.24,ESE,113,0.0,0.0,91,0.00,,,0.00,0.0,meteohub,2013-01-06 06:21:00,
2013-01-06 01:26:00,45.3,43.2,30.25,ESE,113,0.0,0.0,92,0.00,,,0.00,0.0,meteohub,2013-01-06 06:26:00,
2013-01-06 01:31:00,45.3,43.2,30.25,ESE,113,0.0,0.0,92,0.00,,,0.00,0.0,meteohub,2013-01-06 06:31:00,
2013-01-06 01:36:00,45.3,43.2,30.24,ESE,113,0.0,0.0,92,0.00,,,0.00,0.0,meteohub,2013-01-06 06:36:00,
2013-01-06 01:41:00,45.3,43.2,30.24,ESE,113,0.0,0.0,92,0.00,,,0.00,0.0,meteohub,2013-01-06 06:41:00,
2013-01-06 01:46:00,45.3,43.2,30.24,ESE,113,0.0,0.0,92,0.00,,,0.00,0.0,meteohub,2013-01-06 06:46:00,
2013-01-06 01:51:00,45.5,43.5,30.24,ESE,113,0.0,0.0,93,0.00,,,0.00,0.0,meteohub,2013-01-06 06:51:00,
2013-01-06 01:56:00,45.5,43.3,30.24,ESE,113,0.0,0.0,92,0.00,,,0.00,0.0,meteohub,2013-01-06 06:56:00,
2013-01-06 02:01:00,45.7,43.5,30.24,ESE,113,0.0,1.0,92,0.00,,,0.00,0.0,meteohub,2013-01-06 07:01:00,
2013-01-06 02:06:00,45.7,43.2,30.24,ESE,113,0.0,1.0,91,0.00,,,0.00,0.0,meteohub,2013-01-06 07:06:00,
2013-01-06 02:11:00,45.7,43.2,30.23,ESE,113,0.0,1.0,91,0.00,,,0.00,0.0,meteohub,2013-01-06 07:11:00,
2013-01-06 02:16:00,45.9,43.3,30.24,ESE,113,0.0,0.0,91,0.00,,,0.00,0.0,meteohub,2013-01-06 07:16:00,
2013-01-06 02:21:00,45.9,43.3,30.23,ESE,113,0.0,0.0,91,0.00,,,0.00,0.0,meteohub,2013-01-06 07:21:00,
2013-01-06 02:26:00,45.9,43.7,30.22,ESE,113,0.0,0.0,92,0.01,,,0.01,0.0,meteohub,2013-01-06 07:26:00,
2013-01-06 02:31:00,45.9,43.7,30.22,ESE,113,0.0,0.0,92,0.01,,,0.01,0.0,meteohub,2013-01-06 07:31:00,
2013-01-06 02:36:00,45.7,43.5,30.22,ESE,113,0.0,0.0,92,0.01,,,0.01,0.0,meteohub,2013-01-06 07:36:00,
2013-01-06 02:41:00,45.9,43.7,30.21,ESE,113,0.0,1.0,92,0.01,,,0.01,0.0,meteohub,2013-01-06 07:41:00,
2013-01-06 02:46:00,45.9,43.9,30.21,ESE,113,1.0,1.0,93,0.01,,,0.01,0.0,meteohub,2013-01-06 07:46:00,
2013-01-06 02:51:00,45.9,43.9,30.21,ESE,113,1.0,1.0,93,0.01,,,0.01,0.0,meteohub,2013-01-06 07:51:00,
2013-01-06 02:56:00,45.9,43.9,30.20,ESE,113,0.0,1.0,93,0.01,,,0.01,0.0,meteohub,2013-01-06 07:56:00,
2013-01-06 03:01:00,45.9,44.2,30.21,ESE,113,0.0,1.0,94,0.01,,,0.01,0.0,meteohub,2013-01-06 08:01:00,
2013-01-06 03:06:00,45.9,44.2,30.21,ESE,113,0.0,1.0,94,0.01,,,0.01,0.0,meteohub,2013-01-06 08:06:00,
2013-01-06 03:11:00,45.9,44.2,30.21,ESE,113,0.0,0.0,94,0.01,,,0.01,0.0,meteohub,2013-01-06 08:11:00,
2013-01-06 03:16:00,45.9,44.2,30.21,ESE,113,0.0,0.0,94,0.01,,,0.01,0.0,meteohub,2013-01-06 08:16:00,
2013-01-06 03:21:00,46.0,44.4,30.21,ESE,113,0.0,0.0,94,0.00,,,0.01,0.0,meteohub,2013-01-06 08:21:00,
2013-01-06 03:26:00,46.0,44.4,30.21,ESE,113,0.0,0.0,94,0.00,,,0.01,0.0,meteohub,2013-01-06 08:26:00,
2013-01-06 03:31:00,45.9,44.2,30.20,ESE,113,0.0,0.0,94,0.00,,,0.01,0.0,meteohub,2013-01-06 08:31:00,
2013-01-06 03:36:00,46.0,44.6,30.21,ESE,113,0.0,0.0,95,0.00,,,0.01,0.0,meteohub,2013-01-06 08:36:00,
2013-01-06 03:41:00,45.9,44.4,30.20,ESE,113,0.0,0.0,95,0.00,,,0.01,0.0,meteohub,2013-01-06 08:41:00,
2013-01-06 03:46:00,46.0,44.6,30.20,ESE,113,0.0,0.0,95,0.01,,,0.02,0.0,meteohub,2013-01-06 08:46:00,
2013-01-06 03:51:00,46.0,44.6,30.19,ESE,113,0.0,0.0,95,0.01,,,0.02,0.0,meteohub,2013-01-06 08:51:00,
2013-01-06 03:57:00,46.0,45.0,30.19,ESE,113,0.0,0.0,96,0.01,,,0.02,0.0,meteohub,2013-01-06 08:57:00,
2013-01-06 04:02:00,46.0,45.0,30.19,ESE,113,0.0,0.0,96,0.01,,,0.02,0.0,meteohub,2013-01-06 09:02:00,
2013-01-06 04:07:00,46.0,45.0,30.19,ESE,113,0.0,0.0,96,0.01,,,0.02,0.0,meteohub,2013-01-06 09:07:00,
2013-01-06 04:12:00,46.0,45.0,30.19,ESE,113,0.0,0.0,96,0.01,,,0.02,0.0,meteohub,2013-01-06 09:12:00,
2013-01-06 04:17:00,46.0,45.0,30.19,ESE,113,0.0,0.0,96,0.01,,,0.02,0.0,meteohub,2013-01-06 09:17:00,
2013-01-06 04:22:00,46.2,45.1,30.18,ESE,113,0.0,0.0,96,0.02,,,0.03,0.0,meteohub,2013-01-06 09:22:00,
2013-01-06 04:27:00,46.0,45.0,30.18,ESE,113,0.0,0.0,96,0.02,,,0.03,0.0,meteohub,2013-01-06 09:27:00,
2013-01-06 04:32:00,46.0,45.0,30.18,ESE,113,0.0,1.0,96,0.02,,,0.03,0.0,meteohub,2013-01-06 09:32:00,
2013-01-06 04:37:00,46.0,45.0,30.18,ESE,113,0.0,1.0,96,0.02,,,0.03,0.0,meteohub,2013-01-06 09:37:00,
2013-01-06 04:42:00,46.2,45.1,30.18,ESE,113,0.0,1.0,96,0.01,,,0.03,0.0,meteohub,2013-01-06 09:42:00,
2013-01-06 04:47:00,46.2,45.1,30.17,ESE,113,0.0,0.0,96,0.01,,,0.03,0.0,meteohub,2013-01-06 09:47:00,
2013-01-06 04:52:00,46.0,45.0,30.17,ESE,113,0.0,1.0,96,0.01,,,0.03,0.0,meteohub,2013-01-06 09:52:00,
2013-01-06 04:57:00,46.0,45.0,30.17,ESE,113,0.0,1.0,96,0.01,,,0.03,0.0,meteohub,2013-01-06 09:57:00,
2013-01-06 05:02:00,46.0,44.6,30.17,ESE,113,0.0,0.0,95,0.01,,,0.03,0.0,meteohub,2013-01-06 10:02:00,
2013-01-06 05:07:00,46.0,45.0,30.17,ESE,113,0.0,0.0,96,0.01,,,0.03,0.0,meteohub,2013-01-06 10:07:00,
2013-01-06 05:12:00,46.0,44.6,30.17,ESE,113,0.0,0.0,95,0.01,,,0.03,0.0,meteohub,2013-01-06 10:12:00,
2013-01-06 05:17:00,45.9,44.8,30.17,ESE,113,0.0,0.0,96,0.01,,,0.03,0.0,meteohub,2013-01-06 10:17:00,
2013-01-06 05:22:00,45.9,44.8,30.18,ESE,113,0.0,0.0,96,0.00,,,0.03,0.0,meteohub,2013-01-06 10:22:00,
2013-01-06 05:27:00,46.0,45.0,30.18,ESE,113,0.0,0.0,96,0.00,,,0.03,0.0,meteohub,2013-01-06 10:27:00,
2013-01-06 05:32:00,46.0,45.0,30.17,ESE,113,0.0,0.0,96,0.00,,,0.03,0.0,meteohub,2013-01-06 10:32:00,
2013-01-06 05:37:00,46.0,45.0,30.18,ESE,113,0.0,0.0,96,0.00,,,0.03,0.0,meteohub,2013-01-06 10:37:00,
2013-01-06 05:42:00,46.0,45.0,30.18,ESE,113,0.0,0.0,96,0.00,,,0.03,0.0,meteohub,2013-01-06 10:42:00,
2013-01-06 05:47:00,46.0,45.0,30.18,ESE,113,0.0,0.0,96,0.00,,,0.03,0.0,meteohub,2013-01-06 10:47:00,
2013-01-06 05:52:00,46.0,45.0,30.19,ESE,113,0.0,0.0,96,0.00,,,0.03,0.0,meteohub,2013-01-06 10:52:00,
2013-01-06 05:57:00,46.0,45.0,30.19,ESE,113,0.0,0.0,96,0.00,,,0.03,0.0,meteohub,2013-01-06 10:57:00,
2013-01-06 06:02:00,46.0,45.0,30.19,ESE,113,0.0,0.0,96,0.00,,,0.03,0.0,meteohub,2013-01-06 11:02:00,
2013-01-06 06:07:00,46.0,45.0,30.19,ESE,113,0.0,0.0,96,0.00,,,0.03,0.0,meteohub,2013-01-06 11:07:00,
2013-01-06 06:12:00,46.0,45.0,30.19,ESE,113,0.0,0.0,96,0.00,,,0.03,0.0,meteohub,2013-01-06 11:12:00,
2013-01-06 06:17:00,46.2,45.1,30.19,ESE,113,0.0,0.0,96,0.00,,,0.03,0.0,meteohub,2013-01-06 11:17:00,
2013-01-06 06:22:00,46.2,45.1,30.19,ESE,113,0.0,0.0,96,0.00,,,0.03,0.0,meteohub,2013-01-06 11:22:00,
2013-01-06 06:27:00,46.2,45.1,30.19,ESE,113,0.0,0.0,96,0.00,,,0.03,0.0,meteohub,2013-01-06 11:27:00,
2013-01-06 06:32:00,46.0,45.0,30.18,ESE,113,0.0,0.0,96,0.00,,,0.03,0.0,meteohub,2013-01-06 11:32:00,
2013-01-06 06:37:00,46.0,45.0,30.19,ESE,113,0.0,0.0,96,0.00,,,0.03,0.0,meteohub,2013-01-06 11:37:00,
2013-01-06 06:42:00,46.0,45.0,30.19,ESE,113,0.0,0.0,96,0.00,,,0.03,0.0,meteohub,2013-01-06 11:42:00,
2013-01-06 06:47:00,46.0,45.0,30.19,ESE,113,0.0,0.0,96,0.00,,,0.03,0.0,meteohub,2013-01-06 11:47:00,
2013-01-06 06:52:00,46.0,45.0,30.19,ESE,113,0.0,0.0,96,0.00,,,0.03,0.0,meteohub,2013-01-06 11:52:00,
2013-01-06 06:57:00,46.0,45.0,30.19,ESE,113,0.0,0.0,96,0.00,,,0.03,0.0,meteohub,2013-01-06 11:57:00,
2013-01-06 07:02:00,46.0,44.6,30.19,ESE,113,0.0,0.0,95,0.00,,,0.03,0.0,meteohub,2013-01-06 12:02:00,
2013-01-06 07:07:00,46.0,44.6,30.18,ESE,113,0.0,0.0,95,0.00,,,0.03,0.0,meteohub,2013-01-06 12:07:00,
2013-01-06 07:12:00,46.0,44.6,30.18,ESE,113,0.0,0.0,95,0.00,,,0.03,0.0,meteohub,2013-01-06 12:12:00,
2013-01-06 07:17:00,46.0,44.6,30.18,ESE,113,0.0,0.0,95,0.00,,,0.03,0.0,meteohub,2013-01-06 12:17:00,
2013-01-06 07:22:00,45.9,44.2,30.19,ESE,113,0.0,0.0,94,0.00,,,0.03,0.0,meteohub,2013-01-06 12:22:00,
2013-01-06 07:27:00,46.0,44.6,30.19,ESE,113,0.0,1.0,95,0.00,,,0.03,0.0,meteohub,2013-01-06 12:27:00,
2013-01-06 07:32:00,46.2,44.8,30.19,ESE,113,0.0,1.0,95,0.00,,,0.03,0.0,meteohub,2013-01-06 12:32:00,
2013-01-06 07:37:00,46.0,44.6,30.20,ESE,113,0.0,1.0,95,0.00,,,0.03,0.0,meteohub,2013-01-06 12:37:00,
2013-01-06 07:42:00,46.2,44.8,30.20,ESE,113,0.0,1.0,95,0.00,,,0.03,0.0,meteohub,2013-01-06 12:42:00,
2013-01-06 07:47:00,46.2,44.8,30.19,ESE,113,0.0,0.0,95,0.00,,,0.03,7.0,meteohub,2013-01-06 12:47:00,
2013-01-06 07:52:00,46.2,44.8,30.19,ESE,113,0.0,0.0,95,0.00,,,0.03,9.0,meteohub,2013-01-06 12:52:00,
2013-01-06 07:57:00,46.2,44.8,30.19,ESE,113,0.0,0.0,95,0.00,,,0.03,12.0,meteohub,2013-01-06 12:57:00,
2013-01-06 08:02:00,46.2,44.8,30.19,ESE,113,0.0,0.0,95,0.00,,,0.03,14.0,meteohub,2013-01-06 13:02:00,
2013-01-06 08:07:00,46.6,45.1,30.20,ESE,113,0.0,0.0,95,0.00,,,0.03,19.0,meteohub,2013-01-06 13:07:00,
2013-01-06 08:12:00,46.8,45.3,30.20,ESE,113,0.0,0.0,95,0.00,,,0.03,21.0,meteohub,2013-01-06 13:12:00,
2013-01-06 08:17:00,46.8,45.3,30.20,ESE,113,0.0,0.0,95,0.00,,,0.03,25.0,meteohub,2013-01-06 13:17:00,
2013-01-06 08:22:00,46.9,45.5,30.20,ESE,113,0.0,0.0,95,0.00,,,0.03,30.0,meteohub,2013-01-06 13:22:00,
2013-01-06 08:27:00,46.9,45.5,30.20,ESE,113,0.0,0.0,95,0.00,,,0.03,26.0,meteohub,2013-01-06 13:27:00,
2013-01-06 08:32:00,47.3,45.9,30.19,ESE,113,0.0,0.0,95,0.00,,,0.03,16.0,meteohub,2013-01-06 13:32:00,
2013-01-06 08:37:00,47.3,45.7,30.20,ESE,113,2.0,0.0,94,0.00,,,0.03,25.0,meteohub,2013-01-06 13:37:00,
2013-01-06 08:42:00,47.5,46.0,30.21,ESE,113,0.0,2.0,95,0.00,,,0.03,26.0,meteohub,2013-01-06 13:42:00,
2013-01-06 08:47:00,47.5,46.0,30.19,ESE,113,0.0,2.0,95,0.00,,,0.03,30.0,meteohub,2013-01-06 13:47:00,
2013-01-06 08:52:00,47.5,45.9,30.20,ESE,113,0.0,2.0,94,0.00,,,0.03,47.0,meteohub,2013-01-06 13:52:00,
2013-01-06 08:57:00,47.7,46.0,30.21,WSW,252,2.0,2.0,94,0.00,,,0.03,74.0,meteohub,2013-01-06 13:57:00,
2013-01-06 09:02:00,47.7,45.7,30.22,West,259,2.0,2.0,93,0.00,,,0.03,39.0,meteohub,2013-01-06 14:02:00,
2013-01-06 09:07:00,47.8,45.7,30.22,West,259,0.0,2.0,92,0.00,,,0.03,32.0,meteohub,2013-01-06 14:07:00,
2013-01-06 09:12:00,47.8,45.3,30.22,West,260,0.0,2.0,91,0.00,,,0.03,30.0,meteohub,2013-01-06 14:12:00,
2013-01-06 09:17:00,47.8,45.3,30.22,West,260,0.0,2.0,91,0.00,,,0.03,28.0,meteohub,2013-01-06 14:17:00,
2013-01-06 09:22:00,48.0,45.5,30.22,West,260,0.0,2.0,91,0.00,,,0.03,26.0,meteohub,2013-01-06 14:22:00,
2013-01-06 09:27:00,48.0,45.1,30.21,West,260,0.0,1.0,90,0.00,,,0.03,33.0,meteohub,2013-01-06 14:27:00,
2013-01-06 09:32:00,48.0,45.1,30.21,West,260,0.0,1.0,90,0.00,,,0.03,30.0,meteohub,2013-01-06 14:32:00,
2013-01-06 09:37:00,48.2,45.3,30.22,West,260,0.0,1.0,90,0.00,,,0.03,35.0,meteohub,2013-01-06 14:37:00,
2013-01-06 09:42:00,48.4,45.5,30.22,West,260,0.0,0.0,90,0.00,,,0.03,33.0,meteohub,2013-01-06 14:42:00,
2013-01-06 09:47:00,48.4,45.3,30.22,West,260,0.0,0.0,89,0.00,,,0.03,18.0,meteohub,2013-01-06 14:47:00,
2013-01-06 09:52:00,48.4,45.3,30.22,West,260,0.0,0.0,89,0.00,,,0.03,19.0,meteohub,2013-01-06 14:52:00,
2013-01-06 09:57:00,48.4,45.3,30.21,West,260,0.0,0.0,89,0.00,,,0.03,26.0,meteohub,2013-01-06 14:57:00,
2013-01-06 10:02:00,48.4,45.3,30.21,West,260,0.0,0.0,89,0.00,,,0.03,39.0,meteohub,2013-01-06 15:02:00,
2013-01-06 10:07:00,48.4,45.0,30.21,West,260,0.0,0.0,88,0.00,,,0.03,51.0,meteohub,2013-01-06 15:07:00,
2013-01-06 10:12:00,48.7,45.3,30.21,West,260,0.0,0.0,88,0.00,,,0.03,63.0,meteohub,2013-01-06 15:12:00,
2013-01-06 10:17:00,48.9,45.5,30.21,West,260,0.0,0.0,88,0.00,,,0.03,69.0,meteohub,2013-01-06 15:17:00,
2013-01-06 10:22:00,49.1,45.7,30.21,West,260,0.0,0.0,88,0.00,,,0.03,56.0,meteohub,2013-01-06 15:22:00,
2013-01-06 10:27:00,49.1,45.7,30.21,West,260,0.0,0.0,88,0.00,,,0.03,53.0,meteohub,2013-01-06 15:27:00,
2013-01-06 10:32:00,49.3,45.5,30.21,West,260,0.0,0.0,87,0.00,,,0.03,54.0,meteohub,2013-01-06 15:32:00,
2013-01-06 10:37:00,49.5,45.7,30.21,West,260,0.0,1.0,87,0.00,,,0.03,42.0,meteohub,2013-01-06 15:37:00,
2013-01-06 10:42:00,49.5,45.7,30.22,West,260,1.0,1.0,87,0.00,,,0.03,46.0,meteohub,2013-01-06 15:42:00,
2013-01-06 10:47:00,49.5,45.7,30.21,West,260,0.0,2.0,87,0.00,,,0.03,60.0,meteohub,2013-01-06 15:47:00,
2013-01-06 10:52:00,49.6,46.2,30.21,West,260,0.0,2.0,88,0.00,,,0.03,86.0,meteohub,2013-01-06 15:52:00,
2013-01-06 10:57:00,49.8,46.4,30.20,West,260,0.0,2.0,88,0.00,,,0.03,139.0,meteohub,2013-01-06 15:57:00,
2013-01-06 11:02:00,50.2,46.4,30.20,West,260,0.0,1.0,87,0.00,,,0.03,107.0,meteohub,2013-01-06 16:02:00,
2013-01-06 11:07:00,50.4,46.6,30.20,West,260,0.0,1.0,87,0.00,,,0.03,93.0,meteohub,2013-01-06 16:07:00,
2013-01-06 11:12:00,50.5,46.6,30.20,WSW,243,1.0,1.0,86,0.00,,,0.03,123.0,meteohub,2013-01-06 16:12:00,
2013-01-06 11:17:00,51.1,47.3,30.19,West,263,0.0,3.0,87,0.00,,,0.03,134.0,meteohub,2013-01-06 16:17:00,
2013-01-06 11:22:00,51.4,47.5,30.19,West,270,2.0,3.0,86,0.00,,,0.03,111.0,meteohub,2013-01-06 16:22:00,
2013-01-06 11:27:00,51.3,46.6,30.19,WNW,294,1.0,3.0,84,0.00,,,0.03,70.0,meteohub,2013-01-06 16:27:00,
2013-01-06 11:32:00,51.3,46.2,30.18,WNW,292,1.0,3.0,83,0.00,,,0.03,65.0,meteohub,2013-01-06 16:32:00,
2013-01-06 11:37:00,51.3,46.6,30.18,WNW,292,0.0,3.0,84,0.00,,,0.03,65.0,meteohub,2013-01-06 16:37:00,
2013-01-06 11:42:00,51.3,46.2,30.17,NW,315,0.0,3.0,83,0.00,,,0.03,97.0,meteohub,2013-01-06 16:42:00,
2013-01-06 11:47:00,51.4,46.2,30.17,NW,315,0.0,2.0,82,0.00,,,0.03,105.0,meteohub,2013-01-06 16:47:00,
2013-01-06 11:52:00,51.6,46.2,30.17,NW,315,0.0,2.0,82,0.00,,,0.03,90.0,meteohub,2013-01-06 16:52:00,
2013-01-06 11:57:00,51.8,46.2,30.17,NW,315,0.0,2.0,81,0.00,,,0.03,109.0,meteohub,2013-01-06 16:57:00,
2013-01-06 12:02:00,52.0,46.0,30.17,NW,307,0.0,2.0,80,0.00,,,0.03,83.0,meteohub,2013-01-06 17:02:00,
2013-01-06 12:07:00,51.8,45.1,30.17,West,279,0.0,3.0,78,0.00,,,0.03,127.0,meteohub,2013-01-06 17:07:00,
2013-01-06 12:12:00,52.0,45.3,30.16,West,279,0.0,3.0,78,0.00,,,0.03,118.0,meteohub,2013-01-06 17:12:00,
2013-01-06 12:17:00,52.2,44.4,30.16,WNW,298,1.0,3.0,75,0.00,,,0.03,65.0,meteohub,2013-01-06 17:17:00,
2013-01-06 12:22:00,52.0,44.6,30.16,WNW,294,0.0,3.0,76,0.00,,,0.03,70.0,meteohub,2013-01-06 17:22:00,
2013-01-06 12:27:00,52.0,44.6,30.16,WNW,292,1.0,3.0,76,0.00,,,0.03,74.0,meteohub,2013-01-06 17:27:00,
2013-01-06 12:32:00,52.0,44.6,30.16,WNW,292,0.0,3.0,76,0.00,,,0.03,49.0,meteohub,2013-01-06 17:32:00,
2013-01-06 12:37:00,52.2,45.1,30.15,WNW,292,0.0,2.0,77,0.00,,,0.03,62.0,meteohub,2013-01-06 17:37:00,
2013-01-06 12:42:00,52.2,45.5,30.15,WNW,292,0.0,2.0,78,0.00,,,0.03,77.0,meteohub,2013-01-06 17:42:00,
2013-01-06 12:47:00,52.3,45.3,30.15,WNW,292,0.0,2.0,77,0.00,,,0.03,93.0,meteohub,2013-01-06 17:47:00,
2013-01-06 12:52:00,52.5,45.9,30.14,WNW,292,0.0,1.0,78,0.00,,,0.03,146.0,meteohub,2013-01-06 17:52:00,
2013-01-06 12:57:00,52.9,46.2,30.14,WNW,292,0.0,1.0,78,0.00,,,0.03,163.0,meteohub,2013-01-06 17:57:00,
2013-01-06 13:02:00,53.2,46.6,30.14,ENE,58,0.0,1.0,78,0.00,,,0.03,188.0,meteohub,2013-01-06 18:02:00,
2013-01-06 13:07:00,53.4,46.8,30.14,ENE,58,1.0,2.0,78,0.00,,,0.03,163.0,meteohub,2013-01-06 18:07:00,
2013-01-06 13:12:00,53.4,46.0,30.14,ENE,57,0.0,2.0,76,0.00,,,0.03,111.0,meteohub,2013-01-06 18:12:00,
2013-01-06 13:17:00,53.2,45.5,30.13,WNW,283,2.0,2.0,75,0.00,,,0.03,132.0,meteohub,2013-01-06 18:17:00,
2013-01-06 13:23:00,53.2,44.1,30.13,WNW,282,1.0,3.0,71,0.00,,,0.03,153.0,meteohub,2013-01-06 18:23:00,
2013-01-06 13:28:00,53.8,45.0,30.13,WNW,282,0.0,3.0,72,0.00,,,0.03,162.0,meteohub,2013-01-06 18:28:00,
2013-01-06 13:33:00,53.8,43.5,30.12,WNW,282,0.0,3.0,68,0.00,,,0.03,137.0,meteohub,2013-01-06 18:33:00,
2013-01-06 13:38:00,54.0,44.1,30.12,ESE,105,0.0,2.0,69,0.00,,,0.03,151.0,meteohub,2013-01-06 18:38:00,
2013-01-06 13:43:00,54.1,44.6,30.12,ESE,105,2.0,2.0,70,0.00,,,0.03,171.0,meteohub,2013-01-06 18:43:00,
2013-01-06 13:48:00,54.1,43.3,30.12,ESE,105,0.0,2.0,67,0.00,,,0.03,113.0,meteohub,2013-01-06 18:48:00,
2013-01-06 13:53:00,54.1,43.9,30.12,ESE,105,0.0,2.0,68,0.00,,,0.03,107.0,meteohub,2013-01-06 18:53:00,
2013-01-06 13:58:00,54.1,43.9,30.11,ESE,105,0.0,2.0,68,0.00,,,0.03,114.0,meteohub,2013-01-06 18:58:00,
2013-01-06 14:03:00,54.3,43.5,30.11,ESE,113,0.0,1.0,67,0.00,,,0.03,77.0,meteohub,2013-01-06 19:03:00,
2013-01-06 14:08:00,54.1,43.0,30.11,ESE,113,0.0,1.0,66,0.00,,,0.03,53.0,meteohub,2013-01-06 19:08:00,
2013-01-06 14:13:00,54.1,43.9,30.11,ESE,113,0.0,1.0,68,0.00,,,0.03,63.0,meteohub,2013-01-06 19:13:00,
2013-01-06 14:18:00,54.1,43.3,30.11,ESE,112,0.0,1.0,67,0.00,,,0.03,53.0,meteohub,2013-01-06 19:18:00,
2013-01-06 14:23:00,54.1,43.9,30.12,ESE,112,0.0,1.0,68,0.00,,,0.03,47.0,meteohub,2013-01-06 19:23:00,
2013-01-06 14:28:00,54.1,44.6,30.12,ESE,112,0.0,1.0,70,0.00,,,0.03,58.0,meteohub,2013-01-06 19:28:00,
2013-01-06 14:33:00,54.1,45.0,30.11,ESE,112,0.0,1.0,71,0.00,,,0.03,67.0,meteohub,2013-01-06 19:33:00,
2013-01-06 14:38:00,54.3,45.1,30.11,ESE,113,0.0,1.0,71,0.00,,,0.03,84.0,meteohub,2013-01-06 19:38:00,
2013-01-06 14:43:00,54.5,45.0,30.11,ESE,119,1.0,1.0,70,0.00,,,0.03,91.0,meteohub,2013-01-06 19:43:00,
2013-01-06 14:48:00,54.5,44.6,30.11,ESE,121,0.0,1.0,69,0.00,,,0.03,54.0,meteohub,2013-01-06 19:48:00,
2013-01-06 14:53:00,54.3,44.1,30.11,ESE,121,0.0,2.0,68,0.00,,,0.03,67.0,meteohub,2013-01-06 19:53:00,
2013-01-06 14:58:00,54.3,44.1,30.11,ESE,121,0.0,2.0,68,0.00,,,0.03,98.0,meteohub,2013-01-06 19:58:00,
2013-01-06 15:04:00,54.7,44.2,30.11,WSW,254,1.0,1.0,68,0.00,,,0.03,79.0,meteohub,2013-01-06 20:04:00,
2013-01-06 15:09:00,54.5,44.6,30.10,SE,136,2.0,2.0,69,0.00,,,0.03,63.0,meteohub,2013-01-06 20:09:00,
2013-01-06 15:11:00,54.5,44.2,30.10,SE,135,0.0,2.0,68,0.00,,,0.03,60.0,meteohub,2013-01-06 20:11:00,
2013-01-06 15:13:00,54.5,44.6,30.10,ESE,113,1.0,2.0,69,0.00,,,0.03,53.0,meteohub,2013-01-06 20:13:00,
2013-01-06 15:18:00,54.7,44.8,30.10,SSE,152,0.0,2.0,69,0.00,,,0.03,44.0,meteohub,2013-01-06 20:18:00,
2013-01-06 15:23:00,54.3,44.1,30.10,SSE,152,0.0,2.0,68,0.00,,,0.03,40.0,meteohub,2013-01-06 20:23:00,
2013-01-06 15:28:00,54.3,43.5,30.10,SSE,152,0.0,2.0,67,0.00,,,0.03,62.0,meteohub,2013-01-06 20:28:00,
2013-01-06 15:33:00,54.3,44.1,30.10,SSW,202,0.0,2.0,68,0.00,,,0.03,47.0,meteohub,2013-01-06 20:33:00,
2013-01-06 15:38:00,54.3,43.5,30.10,SW,226,0.0,2.0,67,0.00,,,0.03,42.0,meteohub,2013-01-06 20:38:00,
2013-01-06 15:43:00,54.1,43.9,30.11,SW,215,0.0,3.0,68,0.00,,,0.03,47.0,meteohub,2013-01-06 20:43:00,
2013-01-06 15:48:00,54.3,44.4,30.10,SSW,211,1.0,3.0,69,0.00,,,0.03,37.0,meteohub,2013-01-06 20:48:00,
2013-01-06 15:53:00,54.0,44.1,30.10,SW,215,0.0,3.0,69,0.00,,,0.03,28.0,meteohub,2013-01-06 20:53:00,
2013-01-06 15:58:00,54.0,44.8,30.10,SW,215,0.0,2.0,71,0.00,,,0.03,40.0,meteohub,2013-01-06 20:58:00,
2013-01-06 16:01:00,53.8,44.2,30.10,SW,218,0.0,2.0,70,0.00,,,0.03,40.0,meteohub,2013-01-06 21:01:00,
2013-01-06 16:06:00,53.4,44.2,30.10,SE,130,0.0,2.0,71,0.00,,,0.03,46.0,meteohub,2013-01-06 21:06:00,
2013-01-06 16:11:00,53.2,44.1,30.10,ESE,120,0.0,4.0,71,0.00,,,0.03,32.0,meteohub,2013-01-06 21:11:00,
2013-01-06 16:16:00,53.1,44.2,30.10,ESE,120,0.0,4.0,72,0.00,,,0.03,28.0,meteohub,2013-01-06 21:16:00,
2013-01-06 16:21:00,53.1,44.2,30.10,ESE,123,0.0,2.0,72,0.00,,,0.03,30.0,meteohub,2013-01-06 21:21:00,
2013-01-06 16:26:00,52.9,44.1,30.10,SE,134,0.0,2.0,72,0.00,,,0.03,26.0,meteohub,2013-01-06 21:26:00,
2013-01-06 16:31:00,52.9,44.4,30.10,ESE,118,0.0,1.0,73,0.00,,,0.03,23.0,meteohub,2013-01-06 21:31:00,
2013-01-06 16:36:00,52.9,44.1,30.09,ESE,115,0.0,3.0,72,0.00,,,0.03,19.0,meteohub,2013-01-06 21:36:00,
2013-01-06 16:41:00,52.7,44.2,30.09,ESE,119,0.0,3.0,73,0.00,,,0.03,14.0,meteohub,2013-01-06 21:41:00,
2013-01-06 16:46:00,52.5,44.1,30.09,ESE,119,0.0,2.0,73,0.00,,,0.03,12.0,meteohub,2013-01-06 21:46:00,
2013-01-06 16:51:00,52.5,44.4,30.09,ESE,103,1.0,3.0,74,0.00,,,0.03,9.0,meteohub,2013-01-06 21:51:00,
2013-01-06 16:56:00,52.3,44.6,30.08,East,93,1.0,3.0,75,0.00,,,0.03,7.0,meteohub,2013-01-06 21:56:00,
2013-01-06 17:01:00,52.2,44.8,30.09,ESE,117,0.0,3.0,76,0.00,,,0.03,7.0,meteohub,2013-01-06 22:01:00,
2013-01-06 17:06:00,52.2,44.8,30.09,ESE,117,0.0,3.0,76,0.00,,,0.03,0.0,meteohub,2013-01-06 22:06:00,
2013-01-06 17:11:00,52.0,44.6,30.09,ESE,113,0.0,2.0,76,0.00,,,0.03,0.0,meteohub,2013-01-06 22:11:00,
2013-01-06 17:16:00,51.6,44.6,30.09,ESE,110,0.0,2.0,77,0.00,,,0.03,0.0,meteohub,2013-01-06 22:16:00,
2013-01-06 17:21:00,51.6,44.6,30.09,ESE,110,0.0,2.0,77,0.00,,,0.03,0.0,meteohub,2013-01-06 22:21:00,
2013-01-06 17:26:00,51.4,44.1,30.09,ESE,110,0.0,2.0,76,0.00,,,0.03,0.0,meteohub,2013-01-06 22:26:00,
2013-01-06 17:31:00,51.4,44.4,30.09,ESE,110,0.0,2.0,77,0.00,,,0.03,0.0,meteohub,2013-01-06 22:31:00,
2013-01-06 17:36:00,51.4,44.4,30.09,ESE,110,0.0,2.0,77,0.00,,,0.03,0.0,meteohub,2013-01-06 22:36:00,
2013-01-06 17:41:00,51.3,44.2,30.09,ESE,110,0.0,1.0,77,0.00,,,0.03,0.0,meteohub,2013-01-06 22:41:00,
2013-01-06 17:46:00,51.3,44.2,30.09,ESE,109,0.0,1.0,77,0.00,,,0.03,0.0,meteohub,2013-01-06 22:46:00,
2013-01-06 17:51:00,51.3,44.2,30.09,ESE,109,0.0,1.0,77,0.00,,,0.03,0.0,meteohub,2013-01-06 22:51:00,
2013-01-06 17:56:00,51.1,44.4,30.09,ESE,109,0.0,1.0,78,0.00,,,0.03,0.0,meteohub,2013-01-06 22:56:00,
2013-01-06 18:01:00,51.1,44.4,30.09,ESE,109,0.0,2.0,78,0.00,,,0.03,0.0,meteohub,2013-01-06 23:01:00,
2013-01-06 18:06:00,51.1,44.4,30.09,ESE,109,0.0,2.0,78,0.00,,,0.03,0.0,meteohub,2013-01-06 23:06:00,
2013-01-06 18:11:00,50.9,44.2,30.09,ESE,109,0.0,1.0,78,0.00,,,0.03,0.0,meteohub,2013-01-06 23:11:00,
2013-01-06 18:17:00,50.9,44.6,30.10,ESE,109,1.0,2.0,79,0.00,,,0.03,0.0,meteohub,2013-01-06 23:17:00,
2013-01-06 18:22:00,50.7,44.1,30.10,ESE,116,0.0,2.0,78,0.00,,,0.03,0.0,meteohub,2013-01-06 23:22:00,
2013-01-06 18:27:00,50.7,44.4,30.10,ESE,116,0.0,2.0,79,0.00,,,0.03,0.0,meteohub,2013-01-06 23:27:00,
2013-01-06 18:32:00,50.7,44.8,30.10,ESE,116,0.0,2.0,80,0.00,,,0.03,0.0,meteohub,2013-01-06 23:32:00,
2013-01-06 18:37:00,50.5,44.6,30.10,ESE,116,0.0,2.0,80,0.00,,,0.03,0.0,meteohub,2013-01-06 23:37:00,
2013-01-06 18:42:00,50.5,44.6,30.11,ESE,116,0.0,1.0,80,0.00,,,0.03,0.0,meteohub,2013-01-06 23:42:00,
2013-01-06 18:47:00,50.5,45.0,30.10,SE,140,0.0,1.0,81,0.00,,,0.03,0.0,meteohub,2013-01-06 23:47:00,
2013-01-06 18:52:00,50.5,45.0,30.10,SE,140,0.0,2.0,81,0.00,,,0.03,0.0,meteohub,2013-01-06 23:52:00,
2013-01-06 18:57:00,50.4,45.1,30.09,SE,140,0.0,2.0,82,0.00,,,0.03,0.0,meteohub,2013-01-06 23:57:00,
2013-01-06 19:02:00,50.2,45.5,30.10,SE,140,0.0,2.0,84,0.00,,,0.03,0.0,meteohub,2013-01-07 00:02:00,
2013-01-06 19:07:00,49.8,45.5,30.10,SE,140,0.0,1.0,85,0.00,,,0.03,0.0,meteohub,2013-01-07 00:07:00,
2013-01-06 19:12:00,49.6,45.7,30.10,SE,140,0.0,1.0,86,0.00,,,0.03,0.0,meteohub,2013-01-07 00:12:00,
2013-01-06 19:17:00,49.6,45.7,30.09,SE,140,0.0,0.0,86,0.00,,,0.03,0.0,meteohub,2013-01-07 00:17:00,
2013-01-06 19:22:00,49.6,45.7,30.09,SE,140,1.0,1.0,86,0.00,,,0.03,0.0,meteohub,2013-01-07 00:22:00,
2013-01-06 19:27:00,49.6,45.7,30.09,SE,140,0.0,1.0,86,0.00,,,0.03,0.0,meteohub,2013-01-07 00:27:00,
2013-01-06 19:32:00,49.8,45.5,30.09,SE,140,0.0,1.0,85,0.00,,,0.03,0.0,meteohub,2013-01-07 00:32:00,
2013-01-06 19:37:00,49.8,45.5,30.09,SE,140,0.0,1.0,85,0.00,,,0.03,0.0,meteohub,2013-01-07 00:37:00,
2013-01-06 19:42:00,49.8,45.5,30.09,SE,140,0.0,1.0,85,0.00,,,0.03,0.0,meteohub,2013-01-07 00:42:00,
2013-01-06 19:47:00,49.8,45.9,30.09,SE,140,0.0,1.0,86,0.00,,,0.03,0.0,meteohub,2013-01-07 00:47:00,
2013-01-06 19:52:00,49.8,45.9,30.09,SE,140,0.0,1.0,86,0.00,,,0.03,0.0,meteohub,2013-01-07 00:52:00,
2013-01-06 19:57:00,49.6,45.7,30.09,SE,140,0.0,1.0,86,0.00,,,0.03,0.0,meteohub,2013-01-07 00:57:00,
2013-01-06 20:02:00,49.8,45.5,30.09,SE,140,0.0,1.0,85,0.00,,,0.03,0.0,meteohub,2013-01-07 01:02:00,
2013-01-06 20:07:00,49.8,45.5,30.10,West,270,1.0,1.0,85,0.00,,,0.03,0.0,meteohub,2013-01-07 01:07:00,
2013-01-06 20:12:00,49.8,45.5,30.10,West,270,0.0,4.0,85,0.00,,,0.03,0.0,meteohub,2013-01-07 01:12:00,
2013-01-06 20:17:00,50.0,45.7,30.10,West,270,0.0,4.0,85,0.00,,,0.03,0.0,meteohub,2013-01-07 01:17:00,
2013-01-06 20:22:00,50.0,45.7,30.11,West,270,0.0,4.0,85,0.00,,,0.03,0.0,meteohub,2013-01-07 01:22:00,
2013-01-06 20:27:00,50.0,46.0,30.11,West,270,0.0,1.0,86,0.00,,,0.03,0.0,meteohub,2013-01-07 01:27:00,
2013-01-06 20:32:00,50.0,46.0,30.11,West,270,0.0,1.0,86,0.00,,,0.03,0.0,meteohub,2013-01-07 01:32:00,
2013-01-06 20:37:00,50.0,45.7,30.11,West,266,0.0,1.0,85,0.00,,,0.03,0.0,meteohub,2013-01-07 01:37:00,
2013-01-06 20:42:00,50.2,45.9,30.11,West,271,2.0,2.0,85,0.00,,,0.03,0.0,meteohub,2013-01-07 01:42:00,
2013-01-06 20:47:00,50.2,45.9,30.11,West,273,0.0,3.0,85,0.00,,,0.03,0.0,meteohub,2013-01-07 01:47:00,
2013-01-06 20:52:00,50.2,46.2,30.11,West,271,0.0,3.0,86,0.00,,,0.03,0.0,meteohub,2013-01-07 01:52:00,
2013-01-06 20:57:00,50.2,45.9,30.12,WNW,289,0.0,3.0,85,0.00,,,0.03,0.0,meteohub,2013-01-07 01:57:00,
2013-01-06 21:02:00,50.2,45.9,30.12,WNW,283,0.0,3.0,85,0.00,,,0.03,0.0,meteohub,2013-01-07 02:02:00,
2013-01-06 21:07:00,50.2,45.9,30.12,WNW,283,0.0,3.0,85,0.00,,,0.03,0.0,meteohub,2013-01-07 02:07:00,
2013-01-06 21:12:00,50.2,45.9,30.12,ESE,119,0.0,3.0,85,0.00,,,0.03,0.0,meteohub,2013-01-07 02:12:00,
2013-01-06 21:17:00,50.4,46.0,30.12,WNW,290,0.0,4.0,85,0.00,,,0.03,0.0,meteohub,2013-01-07 02:17:00,
2013-01-06 21:22:00,50.4,45.7,30.13,WNW,288,0.0,4.0,84,0.00,,,0.03,0.0,meteohub,2013-01-07 02:22:00,
2013-01-06 21:27:00,50.4,46.0,30.12,WNW,288,0.0,4.0,85,0.00,,,0.03,0.0,meteohub,2013-01-07 02:27:00,
2013-01-06 21:32:00,50.4,46.0,30.12,NW,304,0.0,1.0,85,0.00,,,0.03,0.0,meteohub,2013-01-07 02:32:00,
2013-01-06 21:37:00,50.4,45.7,30.12,NW,304,0.0,5.0,84,0.00,,,0.03,0.0,meteohub,2013-01-07 02:37:00,
2013-01-06 21:42:00,50.4,45.7,30.12,NW,304,0.0,5.0,84,0.00,,,0.03,0.0,meteohub,2013-01-07 02:42:00,
2013-01-06 21:47:00,50.4,45.7,30.12,NW,304,0.0,5.0,84,0.00,,,0.03,0.0,meteohub,2013-01-07 02:47:00,
2013-01-06 21:52:00,50.4,45.7,30.13,NW,304,0.0,3.0,84,0.00,,,0.03,0.0,meteohub,2013-01-07 02:52:00,
2013-01-06 21:57:00,50.4,45.7,30.12,NW,304,0.0,3.0,84,0.00,,,0.03,0.0,meteohub,2013-01-07 02:57:00,
2013-01-06 22:02:00,50.4,45.7,30.13,WNW,299,2.0,2.0,84,0.00,,,0.03,0.0,meteohub,2013-01-07 03:02:00,
2013-01-06 22:07:00,50.4,45.7,30.13,WNW,299,0.0,3.0,84,0.00,,,0.03,0.0,meteohub,2013-01-07 03:07:00,
2013-01-06 22:12:00,50.4,45.7,30.14,WNW,298,0.0,3.0,84,0.00,,,0.03,0.0,meteohub,2013-01-07 03:12:00,
2013-01-06 22:17:00,50.4,45.7,30.14,WNW,298,0.0,3.0,84,0.00,,,0.03,0.0,meteohub,2013-01-07 03:17:00,
2013-01-06 22:22:00,50.2,45.5,30.14,WNW,298,0.0,2.0,84,0.00,,,0.03,0.0,meteohub,2013-01-07 03:22:00,
2013-01-06 22:27:00,50.2,45.5,30.14,WNW,298,0.0,2.0,84,0.00,,,0.03,0.0,meteohub,2013-01-07 03:27:00,
2013-01-06 22:32:00,49.8,45.5,30.14,WNW,298,0.0,2.0,85,0.00,,,0.03,0.0,meteohub,2013-01-07 03:32:00,
2013-01-06 22:37:00,49.6,45.3,30.14,WNW,294,0.0,2.0,85,0.00,,,0.03,0.0,meteohub,2013-01-07 03:37:00,
2013-01-06 22:42:00,49.3,45.0,30.13,WNW,294,0.0,2.0,85,0.00,,,0.03,0.0,meteohub,2013-01-07 03:42:00,
2013-01-06 22:47:00,49.1,44.8,30.13,WNW,298,0.0,2.0,85,0.00,,,0.03,0.0,meteohub,2013-01-07 03:47:00,
2013-01-06 22:52:00,48.7,44.8,30.14,WNW,297,2.0,2.0,86,0.00,,,0.03,0.0,meteohub,2013-01-07 03:52:00,
2013-01-06 22:57:00,48.9,45.0,30.14,WNW,297,0.0,2.0,86,0.00,,,0.03,0.0,meteohub,2013-01-07 03:57:00,
2013-01-06 23:02:00,48.7,44.8,30.14,WNW,297,0.0,2.0,86,0.00,,,0.03,0.0,meteohub,2013-01-07 04:02:00,
2013-01-06 23:07:00,48.7,44.8,30.14,NNW,338,0.0,2.0,86,0.00,,,0.03,0.0,meteohub,2013-01-07 04:07:00,
2013-01-06 23:12:00,48.7,44.8,30.15,NNW,338,0.0,2.0,86,0.00,,,0.03,0.0,meteohub,2013-01-07 04:12:00,
2013-01-06 23:17:00,48.6,44.6,30.15,NNW,338,0.0,1.0,86,0.00,,,0.03,0.0,meteohub,2013-01-07 04:17:00,
2013-01-06 23:23:00,48.4,44.4,30.14,NNW,338,0.0,1.0,86,0.00,,,0.03,0.0,meteohub,2013-01-07 04:23:00,
2013-01-06 23:28:00,48.4,44.4,30.15,NNW,338,1.0,1.0,86,0.00,,,0.03,0.0,meteohub,2013-01-07 04:28:00,
2013-01-06 23:33:00,48.0,44.4,30.15,NNW,338,0.0,1.0,87,0.00,,,0.03,0.0,meteohub,2013-01-07 04:33:00,
2013-01-06 23:38:00,47.7,44.2,30.15,NNW,338,0.0,1.0,88,0.00,,,0.03,0.0,meteohub,2013-01-07 04:38:00,
2013-01-06 23:43:00,47.5,44.1,30.15,NNW,338,0.0,1.0,88,0.00,,,0.03,0.0,meteohub,2013-01-07 04:43:00,
2013-01-06 23:48:00,47.3,43.9,30.15,NNW,338,0.0,1.0,88,0.00,,,0.03,0.0,meteohub,2013-01-07 04:48:00,
2013-01-06 23:53:00,46.8,43.3,30.15,NNW,338,0.0,1.0,88,0.00,,,0.03,0.0,meteohub,2013-01-07 04:53:00,
2013-01-06 23:58:00,46.8,44.1,30.15,NNW,338,0.0,2.0,90,0.00,,,0.03,0.0,meteohub,2013-01-07 04:58:00,